Overview Statistics Trail Chart Weather Telemetry Raw packets
 

This is the latest recevied weather packets stored in our database for station/object WW5JC. If no packets are shown the sender has not sent any weather packets the latest 10 day(s).

<< 40 41 42 43 44 45 46 >>
Time Temp. Humidity Pressure Rain* Wind** Luminosity Snow
1788353171 24.44° C 88% 1018.5 hPa 0 mm - 38 W/m² -
1788352871 23.89° C 90% 1018.6 hPa 0 mm - 33 W/m² -
1788352567 23.89° C 90% 1018.4 hPa 0 mm - 21 W/m² -
1788352262 23.33° C 91% 1018.4 hPa 0 mm - 19 W/m² -
1788351961 23.33° C 91% 1018.4 hPa 0 mm - 17 W/m² -
1788351657 23.33° C 91% 1018.1 hPa 0 mm - 15 W/m² -
1788351357 23.33° C 91% 1018.1 hPa 0 mm - 12 W/m² -
1788351052 23.33° C 91% 1018.1 hPa 0 mm - 10 W/m² -
1788350748 23.33° C 91% 1018.2 hPa 0 mm - 7 W/m² -
1788350444 23.33° C 91% 1018.1 hPa 0 mm - 5 W/m² -
1788350139 23.33° C 90% 1018.2 hPa 0 mm - 3 W/m² -
1788349835 23.33° C 91% 1018.4 hPa 0 mm - 1 W/m² -
1788349531 23.33° C 90% 1018.1 hPa 0 mm - 1 W/m² -
1788349231 23.33° C 90% 1018.2 hPa 0 mm - 0 W/m² -
1788348927 23.33° C 90% 1018.2 hPa 0 mm - 0 W/m² -
1788348622 23.33° C 90% 1018.2 hPa 0 mm - 0 W/m² -
1788348317 23.89° C 88% 1018.1 hPa 0 mm - 0 W/m² -
1788348014 23.89° C 89% 1017.8 hPa 0 mm - 0 W/m² -
1788347709 23.89° C 89% 1018.2 hPa 0 mm - 0 W/m² -
1788347405 23.89° C 88% 1017.8 hPa 0 mm - 0 W/m² -
1788347101 23.89° C 88% 1018.1 hPa 0 mm - 0 W/m² -
1788346795 23.89° C 87% 1018.1 hPa 0 mm - 0 W/m² -
1788346491 23.89° C 88% 1018.1 hPa 0 mm - 0 W/m² -
1788346190 23.89° C 87% 1018 hPa 0 mm - 0 W/m² -
1788345886 23.89° C 87% 1017.9 hPa 0 mm - 0 W/m² -

* Rain latest hour (hover to see other rain measurements)
** Current wind speed in m/s (hover to see current wind gust speed)